YSNWYCFS

Guest
Details From YSNW - Nowra Military
To YCFS - Coffs Harbour
Flight Number -
Tags generated
Created
Modified
Stats Distance 313 nm / 580 km
Max Altitude 35,000 ft / 10,668 m
Waypoints 4
Social Downloads 2
Likes 0
Share VATSIM

Download

Looking for another format? Having issues loading an existing format? Contact us
Advertisement - Login to hide

Notes

Basic altitude profile: - Ascent Rate: 2500ft/min - Ascent Speed: 250kts - Cruise Altitude: 34000ft - Cruise Speed: 420kts - Descent Rate: 1500ft/min - Descent Speed: 250kts Options: - Use NATs: yes - Use PACOTS: yes - Use low airways: no - Use high airways: yes

Route

YSNW ENTRA Y245 BANDA YCFS

ID Type Via Altitude Latitude Longitude Leg Dist Tot Dist Heading (true) Name
O YSNW APT - 0 ft / 0 m -34.94542˚ 150.54090˚ - 0 nm - Nowra Military
ENTRA FIX - 35,000 ft / 10,668 m -33.58306˚ 151.69694˚ 99 nm 99 nm 35° / 35° -
BANDA FIX Y245 (AWY-HI) 17,000 ft / 5,182 m -30.79972˚ 152.57306˚ 172 nm 272 nm 15° / 15° -
O YCFS APT - 0 ft / 0 m -30.32443˚ 153.11596˚ 40 nm 312 nm 45° / 44° Coffs Harbour

Altitude Profile

Advertisement - Login to hide

Weather


0- 5 10 15 20 25 30 35+ Temperature / ° C

Clouds and Precipitation
Forecast for 2018-05-25 12:00 UTC. Updated 6 hours ago

Ground ~20,000 ft ~40,000 ft Winds

YSNW

Details ICAO YSNW (NOA)
Name Nowra Military
Region Australia
Timezone Australia/Sydney (UTC+10.0)
Stats Elevation 400 ft / 122 m (AMSL)
Location -34.945417° 150.540900°
Runways 2
Magnetic Variation 12.765° E

METAR

YSNW 251600Z AUTO 29007KT 9999 // NCD 09/09 Q1029

Decode

TAF

Not found

Departure Runways

ID Width Length Bearing (true) Bearing (mag) Surface Threshold Offset Overrun Length
03 148 ft / 45 m 6,870 ft / 2,094 m 44.25° 31.48° Asphalt 0 ft / 0 m 0 ft / 0 m
08 148 ft / 45 m 6,594 ft / 2,010 m 94.41° 81.64° Asphalt 0 ft / 0 m 0 ft / 0 m
21 148 ft / 45 m 6,870 ft / 2,094 m 224.24° 211.47° Asphalt 151 ft / 46 m 0 ft / 0 m
26 148 ft / 45 m 6,594 ft / 2,010 m 274.39° 261.62° Asphalt 0 ft / 0 m 299 ft / 91 m

YCFS

Details ICAO YCFS
Name Coffs Harbour
Region Australia
Timezone Australia/Sydney (UTC+10.0)
Stats Elevation 18 ft / 5 m (AMSL)
Location -30.324426° 153.115959°
Runways 2
Magnetic Variation 11.920° E

METAR

YCFS 251630Z AUTO 25006KT 9999 // SCT033 SCT039 BKN046 15/14 Q1027

Decode

TAF

TAF AMD YCFS 251124Z 2511/2606 17005KT 9999 -SHRA SCT020 BKN030 FM260200 15010KT 9999 BKN040 INTER 2511/2523 3000 SHRA SCT015 BKN020

Decode

Destination Runways

ID Width Length Bearing (true) Bearing (mag) Surface Threshold Offset Overrun Length
03 148 ft / 45 m 6,832 ft / 2,082 m 40.57° 28.65° Asphalt 0 ft / 0 m 0 ft / 0 m
10 59 ft / 18 m 2,792 ft / 851 m 107.17° 95.25° Asphalt 262 ft / 80 m 0 ft / 0 m
21 148 ft / 45 m 6,832 ft / 2,082 m 220.57° 208.65° Asphalt 0 ft / 0 m 0 ft / 0 m
28 59 ft / 18 m 2,792 ft / 851 m 287.16° 275.24° Asphalt 66 ft / 20 m 0 ft / 0 m

Popular Alternatives